Weather History for Nantucket, MA

Change the Weather History Date:

Saturday, August 24, 2013

  Actual Average Record
Temperature  
Mean Temperature 62 °F -  
Max Temperature 71 °F 74 °F 82 °F (1969)
Min Temperature 54 °F 60 °F 48 °F (2004)
Degree Days  
Heating Degree Days 2    
Growing Degree Days 12 (Base 50)    
Moisture  
Dew Point 54 °F    
Average Humidity 68    
Maximum Humidity 86    
Minimum Humidity 49    
Precipitation  
Precipitation 0.00 in - - ()
Sea Level Pressure  
Sea Level Pressure 30.24 in    
Wind  
Wind Speed 11 mph (NNE)    
Max Wind Speed 22 mph    
Max Gust Speed 28 mph    
Visibility 10 miles    
Events      
Averages and records for this station are not official NWS values.
T = Trace of Precipitation, MM = Missing Value Source: NWS Daily Summary

Daily Weather History Graph

Daily Weather History Graph

Search for Another Location

Airport:

Trip Planner

Search our weather history database for the weather conditions in past years. The results will help you decide how hot, cold, wet, or windy it might be!

Date:

Astronomy

Aug. 24, 2013 Rise Set
Actual Time 5:58 AM EDT 7:25 PM EDT
Civil Twilight 5:29 AM EDT 7:54 PM EDT
Nautical Twilight 4:55 AM EDT 8:28 PM EDT
Astronomical Twilight 4:18 AM EDT 9:05 PM EDT
Moon 9:14 PM EDT (8/24) 9:58 AM EDT (8/24)
Length of Visible Light 14h 24m
Length of Day
13h 26m
Waning Gibbous, 84% of the Moon is Illuminated
Aug 24
Waning Gibbous
Aug 28
Last Quarter
Sep 5
New
Sep 12
First Quarter
Sep 19
Full

Hourly Weather History & Observations

Time (EDT) Temp. Dew Point Humidity Pressure Visibility Wind Dir Wind Speed Gust Speed Precip Events Conditions
12:53 AM 64.9 °F 57.9 °F 78% 30.10 in 10.0 mi North 5.8 mph - N/A   Clear
1:53 AM 66.9 °F 57.0 °F 70% 30.10 in 10.0 mi North 8.1 mph - N/A   Clear
2:53 AM 66.9 °F 57.0 °F 70% 30.11 in 10.0 mi North 10.4 mph - N/A   Clear
3:53 AM 66.9 °F 57.0 °F 70% 30.13 in 10.0 mi North 13.8 mph - N/A   Clear
4:53 AM 64.9 °F 57.0 °F 75% 30.14 in 10.0 mi NNE 12.7 mph - N/A   Clear
5:53 AM 64.0 °F 57.9 °F 80% 30.17 in 10.0 mi NNE 11.5 mph - N/A   Clear
6:53 AM 63.0 °F 57.9 °F 84% 30.19 in 10.0 mi NNE 11.5 mph - N/A   Clear
7:53 AM 66.9 °F 57.0 °F 70% 30.22 in 10.0 mi NNE 16.1 mph - N/A   Clear
8:53 AM 68.0 °F 57.0 °F 68% 30.22 in 10.0 mi NNE 16.1 mph 24.2 mph N/A   Clear
9:53 AM 69.1 °F 54.0 °F 58% 30.25 in 10.0 mi NNE 19.6 mph 26.5 mph N/A   Clear
10:53 AM 69.1 °F 54.0 °F 58% 30.25 in 10.0 mi North 21.9 mph 26.5 mph N/A   Clear
11:53 AM 70.0 °F 53.1 °F 55% 30.27 in 10.0 mi NNE 18.4 mph 27.6 mph N/A   Clear
12:53 PM 71.1 °F 53.1 °F 53% 30.27 in 10.0 mi NNE 19.6 mph 27.6 mph N/A   Clear
1:53 PM 71.1 °F 52.0 °F 51% 30.28 in 10.0 mi NNE 15.0 mph 25.3 mph N/A   Clear
2:53 PM 70.0 °F 54.0 °F 57% 30.27 in 10.0 mi NNE 18.4 mph 23.0 mph N/A   Clear
3:53 PM 69.1 °F 52.0 °F 54% 30.28 in 10.0 mi NNE 15.0 mph - N/A   Clear
4:53 PM 68.0 °F 48.0 °F 49% 30.28 in 10.0 mi NNE 15.0 mph 24.2 mph N/A   Clear
5:53 PM 66.0 °F 50.0 °F 56% 30.28 in 10.0 mi NNE 16.1 mph - N/A   Clear
6:53 PM 63.0 °F 52.0 °F 67% 30.28 in 10.0 mi NNE 9.2 mph - N/A   Clear
7:53 PM 55.9 °F 51.1 °F 84% 30.29 in 10.0 mi NNE 8.1 mph - N/A   Clear
8:53 PM 55.0 °F 51.1 °F 86% 30.32 in 10.0 mi NNE 5.8 mph - N/A   Clear
9:53 PM 55.0 °F 50.0 °F 83% 30.32 in 10.0 mi NNE 4.6 mph - N/A   Clear
10:53 PM 54.0 °F 48.0 °F 80% 30.32 in 10.0 mi North 3.5 mph - N/A   Clear
11:53 PM 54.0 °F 46.9 °F 77% 30.33 in 10.0 mi Calm Calm - N/A   Clear